Погода в Муане

Южная Корея     34°54′00″N   126°25′47″E
темп.,
°C
ветер,
м/с
пор.,
м/с
влажн.,
%
обл.,
%
осадки,
мм/ч
давл.,
гПа
погр.,
м
17 апреля, сб
сб1700:00+10ссз1190100 0.0 101712
03:00+9с1190100 0.0 101510
06:00+8с11820 0.0 101510
09:00+12сз79480 0.0 1017766
12:00+12сз91148100 0.0 10171126
15:00+11зсз913550 0.0 10161534
18:00+10зсз814540 0.0 10171765
21:00+8зсз813540 0.0 1018723
18 апреля, вс
вс1800:00+8зсз713583 0.0 1018755
03:00+8зсз814621 0.0 1017679
06:00+8сз714690 0.0 1018717
09:00+11сз812550 0.0 10191178
12:00+12сз811500 0.0 10191070
15:00+12сз79510 0.0 1018899
18:00+10сз59573 0.0 1018566
21:00+8сз35810 0.0 102099
19 апреля, пн
пн1900:00+7ссз11800 0.0 101910
03:00+6сз11780 0.0 101910
06:00+5в11790 0.0 101910
09:00+12зюз23510 0.0 1020361
12:00+15з47400 0.0 1019644
15:00+16зсз57450 0.0 1018580
18:00+13зсз35630 0.0 1018253
21:00+10з1179100 0.0 101910
20 апреля, вт
вт2000:00+9зсз11833 0.0 102010
03:00+8ссв11844 0.0 102010
06:00+8всв1181100 0.0 102010
09:00+14ссз124970 0.0 1021307
12:00+18сз453749 0.0 1021632
15:00+18сз453514 0.0 1020555
18:00+15сз35474 0.0 1020168
21:00+11сз22600 0.0 102229
21 апреля, ср
ср2100:00+10с225932 0.0 102217
03:00+10св22595 0.0 102212
06:00+10всв22585 0.0 102213
09:00+18в23445 0.0 1022229
12:00+24ююв352931 0.0 10211145
15:00+24ю453020 0.0 10191416
18:00+21ююв364163 0.0 1019291
21:00+15всв225650 0.0 102111